Location: Owatonna
(44.0840°N, 93.2260°W)
Time: 17:36:39
(UTC-05:00)

Tiangong - Pass Details

Date: 04 July 2022
Orbit: 379 x 386 km, 41.5° (Epoch: 10 August)

Event Time Altitude Azimuth Distance (km) Brightness Sun altitude
Rises 21:56:03 0° 271° (W) 2,242 2.5 -8.8°
Reaches altitude 10° 21:58:26 10° 254° (WSW) 1,388 1.1 -9.1°
Maximum altitude 22:00:50 20° 204° (SSW) 939 -0.4 -9.4°
Enters shadow 22:02:45 13° 160° (SSE) 1,245 -0.1 -9.7°
